Tracking 18816 objects as of 17-October-2017
HD Live streaming from Space Station
objects crossing your sky now

FLOCK 2K 14

Track FLOCK 2K 14 now!
10-day predictions
FLOCK 2K 14 is classified as:


NORAD ID: 42892
Int'l Code: 2017-042BV
Perigee: 462.3 km
Apogee: 477.7 km
Inclination: 97.0 °
Period: 93.9 minutes
Semi major axis: 6841 km
RCS: Unknown
Launch date: July 14, 2017
Source: United States (US)
Launch site: TYURATAM MISSILE AND SPACE COMPLEX (TTMTR)
aabbcc
Your satellite tracking list
Your tracking list is empty





NASA's NSSDC Master Catalog

Two Line Element Set (TLE):
1 42892U 17042BV  17289.16271160 +.00003574 +00000-0 +10954-3 0  9991
2 42892 096.9948 193.2340 0011262 261.5274 098.4694 15.34339376014192
Source of the keplerian elements: AFSPC